Seminole, TX

12:55 PM CDT on August 27, 2016 (GMT -0500)
Seminole

Weather History for KGNC - January, 2013

Change the Weather History Date:

Tuesday, January 22, 2013

  Actual Average (KHOB) Record (KHOB)
Temperature  
Mean Temperature 46 °F -  
Max Temperature 66 °F 57 °F 81 °F (1950)
Min Temperature 25 °F 30 °F 15 °F (1999)
Degree Days  
Heating Degree Days 20    
Moisture  
Dew Point 27 °F    
Average Humidity 55    
Maximum Humidity 86    
Minimum Humidity 19    
Precipitation  
Precipitation 0.00 in - - ()
Sea Level Pressure  
Sea Level Pressure 30.20 in    
Wind  
Wind Speed 2 mph (SW)    
Max Wind Speed 13 mph    
Max Gust Speed 16 mph    
Visibility 10 miles    
Events      
Averages and records for this station are not official NWS values.
T = Trace of Precipitation, MM = Missing Value Source: NWS Daily Summary

Daily Weather History Graph

Daily Weather History Graph

Search for Another Location

Airport or City:

Trip Planner

Search our weather history database for the weather conditions in past years. The results will help you decide how hot, cold, wet, or windy it might be!

Date:

Astronomy

Jan. 22, 2013 Rise Set
Actual Time 7:50 AM CST 6:14 PM CST
Civil Twilight 7:24 AM CST 6:40 PM CST
Nautical Twilight 6:54 AM CST 7:10 PM CST
Astronomical Twilight 6:25 AM CST 7:39 PM CST
Moon 2:41 PM CST (1/22) 4:11 AM CST (1/22)
Length of Visible Light 11h 16m
Length of Day
10h 23m
Waxing Gibbous, 83% of the Moon is Illuminated
Jan 22
Waxing Gibbous
Jan 26
Full
Feb 3
Last Quarter
Feb 10
New
Feb 17
First Quarter

Hourly Weather History & Observations

Time (CST) Temp. Windchill Dew Point Humidity Pressure Visibility Wind Dir Wind Speed Gust Speed Precip Events Conditions
12:15 AM 30.2 °F - 22.6 °F 73% 30.23 in 10.0 mi Calm Calm - N/A   Clear
12:35 AM 30.6 °F - 23.0 °F 74% 30.23 in 10.0 mi Calm Calm - N/A   Clear
1:15 AM 30.0 °F - 22.8 °F 75% 30.23 in 10.0 mi Calm Calm - N/A   Clear
1:55 AM 28.9 °F - 22.8 °F 78% 30.22 in 10.0 mi Calm Calm - N/A   Clear
2:15 AM 28.0 °F - 22.5 °F 80% 30.22 in 10.0 mi Calm Calm - N/A   Clear
2:35 AM 28.2 °F - 22.8 °F 80% 30.22 in 10.0 mi Calm Calm - N/A   Clear
2:55 AM 29.1 °F - 22.6 °F 77% 30.21 in 10.0 mi Calm Calm - N/A   Clear
3:15 AM 28.2 °F - 22.3 °F 78% 30.21 in 10.0 mi Calm Calm - N/A   Clear
3:35 AM 27.7 °F 22.4 °F 21.9 °F 79% 30.21 in 10.0 mi West 4.6 mph - N/A   Clear
3:55 AM 26.4 °F - 21.7 °F 82% 30.22 in 10.0 mi Calm Calm - N/A   Clear
4:15 AM 26.2 °F - 21.6 °F 82% 30.22 in 10.0 mi Calm Calm - N/A   Clear
4:35 AM 25.7 °F 20.1 °F 21.6 °F 84% 30.21 in 10.0 mi West 4.6 mph - N/A   Clear
4:55 AM 27.1 °F - 22.6 °F 83% 30.20 in 10.0 mi Calm Calm - N/A   Clear
5:15 AM 27.5 °F - 22.6 °F 82% 30.20 in 10.0 mi Calm Calm - N/A   Clear
5:35 AM 28.4 °F - 23.0 °F 80% 30.20 in 10.0 mi Calm Calm - N/A   Clear
5:55 AM 26.6 °F 21.2 °F 21.9 °F 82% 30.22 in 10.0 mi NW 4.6 mph - N/A   Clear
6:15 AM 25.7 °F 20.1 °F 21.7 °F 85% 30.22 in 10.0 mi WNW 4.6 mph - N/A   Clear
6:35 AM 26.2 °F 22.1 °F 22.1 °F 84% 30.23 in 10.0 mi West 3.5 mph - N/A   Clear
6:55 AM 27.0 °F - 22.8 °F 84% 30.23 in 10.0 mi Calm Calm - N/A   Clear
7:15 AM 28.6 °F - 23.7 °F 82% 30.23 in 10.0 mi Calm Calm - N/A   Clear
7:35 AM 28.4 °F - 23.4 °F 81% 30.23 in 10.0 mi Calm Calm - N/A   Clear
7:55 AM 27.1 °F - 22.3 °F 82% 30.24 in 10.0 mi Calm Calm - N/A   Clear
8:15 AM 25.3 °F - 21.7 °F 86% 30.24 in 10.0 mi Calm Calm - N/A   Clear
8:35 AM 27.7 °F - 23.9 °F 86% 30.24 in 10.0 mi Calm Calm - N/A   Clear
8:55 AM 31.6 °F - 26.6 °F 82% 30.24 in 10.0 mi Calm Calm - N/A   Clear
9:35 AM 38.5 °F - 28.4 °F 67% 30.24 in 10.0 mi Calm Calm - N/A   Clear
9:55 AM 41.0 °F - 29.7 °F 64% 30.24 in 10.0 mi Calm Calm - N/A   Clear
10:15 AM 43.9 °F 41.3 °F 31.1 °F 61% 30.26 in 10.0 mi SW 4.6 mph - N/A   Clear
10:35 AM 46.0 °F 43.1 °F 32.4 °F 59% 30.26 in 10.0 mi SSW 5.8 mph - N/A   Clear
10:55 AM 47.8 °F - 33.1 °F 57% 30.27 in 10.0 mi Calm Calm - N/A   Clear
11:15 AM 50.2 °F - 34.0 °F 54% 30.26 in 10.0 mi SSW 6.9 mph - N/A   Clear
11:35 AM 52.0 °F - 35.8 °F 54% 30.26 in 10.0 mi SSW 6.9 mph - N/A   Clear
11:55 AM 53.2 °F - 36.7 °F 53% 30.25 in 10.0 mi SSW 8.1 mph - N/A   Clear
12:15 PM 55.2 °F - 36.0 °F 48% 30.23 in 10.0 mi SW 9.2 mph - N/A   Clear
12:35 PM 57.0 °F - 35.4 °F 44% 30.22 in 10.0 mi SSW 6.9 mph - N/A   Clear
12:55 PM 59.0 °F - 34.5 °F 40% 30.21 in 10.0 mi SW 6.9 mph - N/A   Clear
1:15 PM 59.7 °F - 32.7 °F 36% 30.19 in 10.0 mi SSW 6.9 mph - N/A   Clear
1:35 PM 61.0 °F - 32.7 °F 35% 30.18 in 10.0 mi SW 8.1 mph - N/A   Clear
1:55 PM 62.1 °F - 32.0 °F 32% 30.17 in 10.0 mi SSW 9.2 mph - N/A   Clear
2:15 PM 63.1 °F - 31.3 °F 30% 30.16 in 10.0 mi SSW 6.9 mph - N/A   Clear
2:35 PM 63.9 °F - 30.0 °F 28% 30.16 in 10.0 mi SSW 8.1 mph - N/A   Clear
2:55 PM 64.8 °F - 29.1 °F 26% 30.16 in 10.0 mi SSW 8.1 mph - N/A   Clear
3:15 PM 65.3 °F - 28.4 °F 25% 30.16 in 10.0 mi South 9.2 mph - N/A   Clear
3:35 PM 66.0 °F - 27.1 °F 23% 30.16 in 10.0 mi SW 9.2 mph - N/A   Clear
3:55 PM 66.2 °F - 27.3 °F 23% 30.16 in 10.0 mi South 9.2 mph - N/A   Clear
4:15 PM 66.2 °F - 26.6 °F 23% 30.15 in 10.0 mi South 11.5 mph - N/A   Clear
4:35 PM 66.2 °F - 25.7 °F 22% 30.15 in 10.0 mi SSW 11.5 mph - N/A   Clear
4:55 PM 66.0 °F - 24.4 °F 21% 30.14 in 10.0 mi SSW 12.7 mph 16.1 mph N/A   Clear
5:15 PM 65.7 °F - 22.6 °F 19% 30.14 in 10.0 mi SSW 9.2 mph - N/A   Clear
5:35 PM 64.8 °F - 22.5 °F 20% 30.14 in 10.0 mi SSW 9.2 mph - N/A   Clear
5:55 PM 62.6 °F - 23.4 °F 22% 30.15 in 10.0 mi SSW 6.9 mph - N/A   Clear
6:15 PM 59.2 °F - 24.8 °F 27% 30.15 in 10.0 mi SSW 6.9 mph - N/A   Clear
6:35 PM 55.8 °F - 25.9 °F 32% 30.15 in 10.0 mi Calm Calm - N/A   Clear
6:55 PM 54.0 °F - 26.4 °F 35% 30.15 in 10.0 mi Calm Calm - N/A   Clear
7:15 PM 53.4 °F - 26.4 °F 35% 30.16 in 10.0 mi Calm Calm - N/A   Clear
7:35 PM 51.4 °F - 26.1 °F 37% 30.16 in 10.0 mi Calm Calm - N/A   Clear
7:55 PM 48.0 °F - 26.1 °F 42% 30.16 in 10.0 mi Calm Calm - N/A   Clear
8:15 PM 47.5 °F - 26.6 °F 44% 30.16 in 10.0 mi Calm Calm - N/A   Clear
8:35 PM 49.5 °F - 27.0 °F 42% 30.16 in 10.0 mi Calm Calm - N/A   Clear
8:55 PM 48.2 °F - 27.1 °F 44% 30.16 in 10.0 mi SW 3.5 mph - N/A   Clear
9:15 PM 47.5 °F - 27.3 °F 46% 30.16 in 10.0 mi SW 10.4 mph - N/A   Clear
9:35 PM 46.6 °F - 27.7 °F 48% 30.17 in 10.0 mi Calm Calm - N/A   Clear
9:55 PM 45.5 °F - 28.2 °F 51% 30.17 in 10.0 mi Calm Calm - N/A   Clear
10:15 PM 45.3 °F - 28.4 °F 52% 30.18 in 10.0 mi Calm Calm - N/A   Clear
10:35 PM 45.5 °F - 28.8 °F 52% 30.18 in 10.0 mi Calm Calm - N/A   Clear
10:55 PM 44.6 °F - 28.8 °F 54% 30.19 in 10.0 mi Calm Calm - N/A   Clear
11:15 PM 43.7 °F - 28.8 °F 56% 30.20 in 10.0 mi Calm Calm - N/A   Clear
11:35 PM 41.0 °F - 28.2 °F 60% 30.21 in 10.0 mi Calm Calm - N/A   Clear
11:55 PM 39.6 °F - 28.4 °F 64% 30.21 in 10.0 mi Calm Calm - N/A   Clear